Volver al catálogo

SL-6 R/B(2)

ActivoHEO
NORAD 24803·ROCKET BODY·🇷🇺 Russia

Lanzado May 14, 1997 desde Plesetsk Cosmodrome

Loading…

Próximos Pases (próximas 24 horas)

TLE

EnvejeciendoSource: Space-Track

Época: Sep 2, 2026, 11:54 UTC

1 24803U 97022D   26245.49625966 -.00000493  00000-0  00000-0 0  9990
2 24803  68.5153 289.7616 6042762  63.9336 345.1930  2.04232624218543

Sigue SL-6 R/B(2) en tiempo real con AllMySat

Download on the App Store